SFR140 FACT-FAPE

Flight info

Callsign SFR140
Flight time 1h 6m
Altitude 35000
Route OKTED UQ12 XUGOL UQ56 OKSET DCT PEV
Aircraft B738/M-SDE2E3FGHIRWXY/LB1

Departure

Time 2026-04-14 14:38
Airport Cape Town International Airport (FACT)

Arrival

Time 2026-04-14 15:44
Airport Chief Dawid Stuurman International Airport (FAPE)
Time Latitude Longitude Altitude Speed Heading
2026-04-14 14:11 -33.97188 18.59892 156 ft 0 kts 254°
2026-04-14 14:29 -33.97188 18.59896 156 ft 2 kts 254°
2026-04-14 14:30 -33.97183 18.59915 156 ft 2 kts 254°
2026-04-14 14:30 -33.97178 18.59934 156 ft 2 kts 253°
2026-04-14 14:30 -33.97173 18.59953 156 ft 2 kts 250°
2026-04-14 14:30 -33.97166 18.59971 156 ft 2 kts 212°
2026-04-14 14:31 -33.97157 18.59974 156 ft 0 kts 168°
2026-04-14 14:34 -33.97192 18.59984 156 ft 10 kts 166°
2026-04-14 14:34 -33.97299 18.60016 156 ft 21 kts 166°
2026-04-14 14:34 -33.97459 18.60070 156 ft 21 kts 164°
2026-04-14 14:35 -33.97589 18.60135 156 ft 15 kts 156°
2026-04-14 14:35 -33.97692 18.60182 156 ft 16 kts 155°
2026-04-14 14:35 -33.97743 18.60304 155 ft 18 kts 104°
2026-04-14 14:35 -33.97757 18.60367 155 ft 0 kts 105°
2026-04-14 14:36 -33.97763 18.60392 154 ft 7 kts 106°
2026-04-14 14:36 -33.97782 18.60471 153 ft 12 kts 106°
2026-04-14 14:36 -33.97772 18.60565 154 ft 11 kts 18°
2026-04-14 14:37 -33.97735 18.60559 153 ft 0 kts 346°
2026-04-14 14:37 -33.97594 18.60515 150 ft 57 kts 346°
2026-04-14 14:37 -33.96969 18.60318 156 ft 126 kts 345°
2026-04-14 14:37 -33.95952 18.60001 356 ft 167 kts 344°
2026-04-14 14:38 -33.94772 18.59631 1046 ft 181 kts 343°
2026-04-14 14:38 -33.93578 18.59321 2111 ft 174 kts 344°
2026-04-14 14:38 -33.92300 18.59011 2585 ft 203 kts 344°
2026-04-14 14:38 -33.90822 18.58630 2814 ft 230 kts 345°
2026-04-14 14:39 -33.89242 18.58213 3340 ft 240 kts 344°
2026-04-14 14:39 -33.87545 18.57770 3918 ft 255 kts 344°
2026-04-14 14:39 -33.85806 18.57327 4952 ft 256 kts 345°
2026-04-14 14:39 -33.84061 18.56887 5981 ft 256 kts 345°
2026-04-14 14:40 -33.82288 18.56672 6921 ft 263 kts
2026-04-14 14:40 -33.80599 18.57586 7896 ft 272 kts 32°
2026-04-14 14:40 -33.79291 18.59296 8753 ft 287 kts 52°
2026-04-14 14:40 -33.78535 18.61576 9606 ft 303 kts 75°
2026-04-14 14:41 -33.78552 18.64161 10315 ft 322 kts 97°
2026-04-14 14:41 -33.79310 18.66823 10525 ft 352 kts 113°
2026-04-14 14:41 -33.80506 18.69476 10957 ft 368 kts 119°
2026-04-14 14:41 -33.81854 18.72131 11622 ft 375 kts 120°
2026-04-14 14:42 -33.83243 18.74814 12357 ft 380 kts 120°
2026-04-14 14:42 -33.84636 18.77539 13044 ft 386 kts 120°
2026-04-14 14:42 -33.86031 18.80321 13702 ft 392 kts 120°
2026-04-14 14:42 -33.87432 18.83165 14300 ft 397 kts 119°
2026-04-14 14:43 -33.88832 18.86044 14958 ft 400 kts 119°
2026-04-14 14:43 -33.90235 18.88951 15596 ft 404 kts 119°
2026-04-14 14:43 -33.91646 18.91888 16246 ft 408 kts 119°
2026-04-14 14:43 -33.93071 18.94862 16861 ft 412 kts 119°
2026-04-14 14:44 -33.94510 18.97871 17497 ft 416 kts 119°
2026-04-14 14:44 -33.95961 19.00905 18156 ft 420 kts 119°
2026-04-14 14:44 -33.97425 19.03968 18674 ft 424 kts 119°
2026-04-14 14:44 -33.98902 19.07063 19217 ft 427 kts 119°
2026-04-14 14:45 -34.00387 19.10175 19746 ft 430 kts 119°
2026-04-14 14:45 -34.01882 19.13314 20291 ft 433 kts 119°
2026-04-14 14:45 -34.03390 19.16481 20841 ft 437 kts 119°
2026-04-14 14:45 -34.04887 19.19627 21380 ft 440 kts 119°
2026-04-14 14:46 -34.06417 19.22845 21904 ft 444 kts 119°
2026-04-14 14:46 -34.07980 19.26136 22413 ft 448 kts 119°
2026-04-14 14:46 -34.09512 19.29365 22904 ft 452 kts 119°
2026-04-14 14:46 -34.11076 19.32666 23383 ft 455 kts 119°
2026-04-14 14:47 -34.12655 19.36001 23814 ft 459 kts 119°
2026-04-14 14:47 -34.14240 19.39350 24263 ft 460 kts 119°
2026-04-14 14:47 -34.15830 19.42715 24682 ft 463 kts 119°
2026-04-14 14:47 -34.17431 19.46104 25061 ft 467 kts 119°
2026-04-14 14:48 -34.19049 19.49532 25472 ft 471 kts 119°
2026-04-14 14:48 -34.20488 19.53071 25906 ft 470 kts 109°
2026-04-14 14:48 -34.21378 19.56881 26254 ft 472 kts 97°
2026-04-14 14:48 -34.21733 19.60816 26585 ft 471 kts 86°
2026-04-14 14:49 -34.21559 19.64745 26985 ft 469 kts 81°
2026-04-14 14:49 -34.21259 19.68679 27388 ft 471 kts 80°
2026-04-14 14:49 -34.20936 19.72618 27749 ft 474 kts 80°
2026-04-14 14:49 -34.20618 19.76588 28126 ft 476 kts 80°
2026-04-14 14:50 -34.20315 19.80583 28494 ft 479 kts 81°
2026-04-14 14:50 -34.20026 19.84601 28853 ft 481 kts 81°
2026-04-14 14:50 -34.19744 19.88638 29223 ft 483 kts 81°
2026-04-14 14:50 -34.19467 19.92648 29568 ft 486 kts 81°
2026-04-14 14:51 -34.19186 19.96714 29911 ft 488 kts 81°
2026-04-14 14:51 -34.18901 20.00804 30226 ft 489 kts 81°
2026-04-14 14:51 -34.18614 20.04893 30656 ft 487 kts 81°
2026-04-14 14:51 -34.18326 20.08959 31151 ft 483 kts 81°
2026-04-14 14:52 -34.18041 20.12981 31604 ft 481 kts 81°
2026-04-14 14:52 -34.17752 20.17002 31962 ft 480 kts 81°
2026-04-14 14:52 -34.17568 20.21040 32310 ft 483 kts 87°
2026-04-14 14:52 -34.17620 20.25080 32708 ft 482 kts 89°
2026-04-14 14:53 -34.17744 20.29117 33134 ft 480 kts 89°
2026-04-14 14:53 -34.17891 20.33138 33519 ft 479 kts 89°
2026-04-14 14:53 -34.18034 20.37154 33864 ft 478 kts 89°
2026-04-14 14:53 -34.18164 20.41164 34163 ft 477 kts 89°
2026-04-14 14:54 -34.18281 20.45167 34432 ft 477 kts 89°
2026-04-14 14:54 -34.18387 20.49176 34683 ft 478 kts 88°
2026-04-14 14:54 -34.18486 20.53191 34852 ft 480 kts 88°
2026-04-14 14:55 -34.18677 20.61291 34840 ft 483 kts 88°
2026-04-14 14:55 -34.18866 20.69351 34832 ft 477 kts 88°
2026-04-14 14:56 -34.19138 20.81330 34843 ft 475 kts 88°
2026-04-14 14:56 -34.19312 20.89307 34847 ft 475 kts 88°
2026-04-14 14:57 -34.19481 20.97275 34851 ft 474 kts 88°
2026-04-14 14:57 -34.19643 21.05191 34846 ft 474 kts 88°
2026-04-14 14:58 -34.19802 21.13161 34848 ft 474 kts 88°
2026-04-14 14:58 -34.19957 21.21186 34844 ft 474 kts 88°
2026-04-14 14:59 -34.20105 21.29100 34848 ft 474 kts 88°
2026-04-14 14:59 -34.20249 21.37072 34842 ft 475 kts 88°
2026-04-14 15:00 -34.20387 21.45039 34842 ft 475 kts 88°
2026-04-14 15:00 -34.20517 21.53009 34844 ft 475 kts 88°
2026-04-14 15:01 -34.20643 21.60984 34843 ft 475 kts 88°
2026-04-14 15:01 -34.20744 21.67618 34850 ft 475 kts 88°
2026-04-14 15:02 -34.20863 21.75640 34831 ft 474 kts 88°
2026-04-14 15:02 -34.20975 21.83549 34840 ft 474 kts 88°
2026-04-14 15:03 -34.21080 21.91506 34836 ft 473 kts 88°
2026-04-14 15:03 -34.21181 21.99438 34848 ft 472 kts 88°
2026-04-14 15:04 -34.21277 22.07363 34841 ft 471 kts 88°
2026-04-14 15:04 -34.21367 22.15268 34844 ft 471 kts 88°
2026-04-14 15:05 -34.21453 22.23169 34840 ft 470 kts 88°
2026-04-14 15:05 -34.21534 22.31063 34831 ft 469 kts 88°
2026-04-14 15:06 -34.21609 22.38947 34839 ft 469 kts 88°
2026-04-14 15:06 -34.21681 22.46825 34832 ft 469 kts 88°
2026-04-14 15:07 -34.21748 22.54644 34834 ft 468 kts 88°
2026-04-14 15:07 -34.21810 22.62504 34830 ft 468 kts 88°
2026-04-14 15:08 -34.21867 22.70370 34832 ft 468 kts 88°
2026-04-14 15:08 -34.21921 22.78193 34812 ft 459 kts 88°
2026-04-14 15:09 -34.21968 22.85836 34816 ft 453 kts 88°
2026-04-14 15:09 -34.22007 22.93567 34269 ft 472 kts 88°
2026-04-14 15:10 -34.22025 22.97517 33896 ft 468 kts 88°
2026-04-14 15:10 -34.22043 23.01442 33421 ft 465 kts 88°
2026-04-14 15:10 -34.22061 23.05345 32993 ft 462 kts 88°
2026-04-14 15:10 -34.22078 23.09182 32561 ft 452 kts 88°
2026-04-14 15:11 -34.22094 23.12937 32181 ft 443 kts 88°
2026-04-14 15:11 -34.22108 23.16645 31805 ft 440 kts 88°
2026-04-14 15:11 -34.22119 23.20331 31422 ft 437 kts 88°
2026-04-14 15:11 -34.22128 23.23943 31051 ft 434 kts 88°
2026-04-14 15:12 -34.22136 23.27627 30671 ft 432 kts 88°
2026-04-14 15:12 -34.22144 23.31235 30300 ft 430 kts 88°
2026-04-14 15:12 -34.22150 23.34835 29922 ft 428 kts 88°
2026-04-14 15:12 -34.22155 23.38422 29481 ft 426 kts 88°
2026-04-14 15:13 -34.22160 23.41940 29070 ft 423 kts 88°
2026-04-14 15:13 -34.22164 23.45481 28671 ft 420 kts 88°
2026-04-14 15:13 -34.22166 23.48995 28278 ft 417 kts 88°
2026-04-14 15:13 -34.22168 23.52484 27894 ft 414 kts 88°
2026-04-14 15:14 -34.22168 23.55948 27516 ft 411 kts 88°
2026-04-14 15:14 -34.22168 23.59389 27141 ft 408 kts 89°
2026-04-14 15:14 -34.22167 23.62808 26767 ft 406 kts 89°
2026-04-14 15:14 -34.22164 23.66205 26397 ft 403 kts 89°
2026-04-14 15:15 -34.22161 23.69579 26029 ft 401 kts 89°
2026-04-14 15:15 -34.22157 23.72938 25659 ft 399 kts 89°
2026-04-14 15:15 -34.22152 23.76281 25293 ft 397 kts 89°
2026-04-14 15:15 -34.22146 23.79615 24924 ft 395 kts 89°
2026-04-14 15:16 -34.22139 23.82930 24546 ft 394 kts 89°
2026-04-14 15:16 -34.22131 23.86232 24170 ft 393 kts 89°
2026-04-14 15:16 -34.22123 23.89526 23815 ft 391 kts 89°
2026-04-14 15:16 -34.22114 23.92808 23427 ft 390 kts 89°
2026-04-14 15:17 -34.22104 23.96080 23015 ft 389 kts 89°
2026-04-14 15:17 -34.22093 23.99334 22626 ft 386 kts 89°
2026-04-14 15:17 -34.22081 24.02561 22248 ft 383 kts 89°
2026-04-14 15:17 -34.22069 24.05770 21883 ft 381 kts 89°
2026-04-14 15:18 -34.22056 24.08956 21522 ft 378 kts 89°
2026-04-14 15:18 -34.22042 24.12126 21166 ft 375 kts 89°
2026-04-14 15:18 -34.22027 24.15269 20810 ft 373 kts 89°
2026-04-14 15:18 -34.22012 24.18385 20459 ft 371 kts 89°
2026-04-14 15:19 -34.21996 24.21490 20109 ft 368 kts 89°
2026-04-14 15:19 -34.21979 24.24582 19762 ft 366 kts 89°
2026-04-14 15:19 -34.21962 24.27653 19414 ft 365 kts 89°
2026-04-14 15:19 -34.21944 24.30705 19067 ft 363 kts 89°
2026-04-14 15:20 -34.21925 24.33751 18706 ft 362 kts 89°
2026-04-14 15:20 -34.21906 24.36784 18357 ft 361 kts 89°
2026-04-14 15:20 -34.21885 24.39814 18010 ft 360 kts 89°
2026-04-14 15:20 -34.21865 24.42832 17611 ft 358 kts 89°
2026-04-14 15:21 -34.21844 24.45828 17245 ft 356 kts 89°
2026-04-14 15:21 -34.21822 24.48805 16894 ft 353 kts 89°
2026-04-14 15:21 -34.21799 24.51769 16550 ft 351 kts 89°
2026-04-14 15:21 -34.21777 24.54707 16209 ft 349 kts 89°
2026-04-14 15:22 -34.21753 24.57630 15867 ft 347 kts 89°
2026-04-14 15:22 -34.21729 24.60530 15529 ft 345 kts 89°
2026-04-14 15:22 -34.21668 24.63426 15187 ft 343 kts 83°
2026-04-14 15:22 -34.21127 24.66199 14946 ft 336 kts 69°
2026-04-14 15:23 -34.20350 24.68840 14651 ft 333 kts 68°
2026-04-14 15:23 -34.19550 24.71456 14342 ft 331 kts 68°
2026-04-14 15:23 -34.18751 24.74059 14037 ft 330 kts 68°
2026-04-14 15:23 -34.17960 24.76654 13713 ft 329 kts 68°
2026-04-14 15:24 -34.17176 24.79246 13346 ft 329 kts 68°
2026-04-14 15:24 -34.16397 24.81840 13000 ft 327 kts 68°
2026-04-14 15:24 -34.15624 24.84419 12663 ft 326 kts 68°
2026-04-14 15:24 -34.14858 24.86986 12332 ft 324 kts 68°
2026-04-14 15:25 -34.14096 24.89538 12002 ft 322 kts 68°
2026-04-14 15:25 -34.13338 24.92078 11678 ft 320 kts 68°
2026-04-14 15:25 -34.12483 24.94532 11428 ft 315 kts 63°
2026-04-14 15:25 -34.11537 24.96902 11179 ft 311 kts 61°
2026-04-14 15:26 -34.10593 24.99192 10939 ft 307 kts 61°
2026-04-14 15:26 -34.09635 25.01514 10694 ft 303 kts 61°
2026-04-14 15:26 -34.08718 25.03751 10460 ft 300 kts 61°
2026-04-14 15:26 -34.07802 25.06002 10226 ft 297 kts 62°
2026-04-14 15:27 -34.06900 25.08230 9991 ft 295 kts 62°
2026-04-14 15:27 -34.06006 25.10446 9760 ft 292 kts 62°
2026-04-14 15:27 -34.05123 25.12638 9508 ft 290 kts 62°
2026-04-14 15:27 -34.04248 25.14815 9241 ft 287 kts 62°
2026-04-14 15:28 -34.03381 25.16972 8979 ft 285 kts 62°
2026-04-14 15:28 -34.02519 25.19116 8737 ft 283 kts 62°
2026-04-14 15:28 -34.01664 25.21242 8487 ft 282 kts 62°
2026-04-14 15:28 -34.00812 25.23361 8235 ft 280 kts 62°
2026-04-14 15:29 -33.99962 25.25473 7987 ft 279 kts 62°
2026-04-14 15:29 -33.99116 25.27574 7748 ft 279 kts 62°
2026-04-14 15:29 -33.98269 25.29677 7499 ft 279 kts 62°
2026-04-14 15:29 -33.97423 25.31775 7253 ft 279 kts 62°
2026-04-14 15:30 -33.96577 25.33875 7020 ft 278 kts 62°
2026-04-14 15:30 -33.95731 25.35972 6788 ft 278 kts 62°
2026-04-14 15:30 -33.94882 25.38076 6555 ft 281 kts 62°
2026-04-14 15:30 -33.94028 25.40190 6319 ft 279 kts 62°
2026-04-14 15:31 -33.93181 25.42286 6076 ft 277 kts 62°
2026-04-14 15:31 -33.92340 25.44367 5831 ft 276 kts 62°
2026-04-14 15:31 -33.91503 25.46435 5581 ft 274 kts 62°
2026-04-14 15:31 -33.90679 25.48473 5449 ft 264 kts 62°
2026-04-14 15:32 -33.89897 25.50406 5356 ft 250 kts 61°
2026-04-14 15:32 -33.89156 25.52237 5233 ft 237 kts 62°
2026-04-14 15:32 -33.88449 25.53983 5143 ft 225 kts 61°
2026-04-14 15:32 -33.87777 25.55642 4951 ft 219 kts 61°
2026-04-14 15:33 -33.87111 25.57281 4696 ft 216 kts 61°
2026-04-14 15:33 -33.86462 25.58875 4457 ft 215 kts 60°
2026-04-14 15:33 -33.85804 25.60493 4209 ft 216 kts 60°
2026-04-14 15:33 -33.85148 25.62107 4179 ft 208 kts 60°
2026-04-14 15:34 -33.84517 25.63655 4214 ft 212 kts 60°
2026-04-14 15:34 -33.83858 25.65274 4239 ft 218 kts 60°
2026-04-14 15:34 -33.83190 25.66915 4225 ft 218 kts 60°
2026-04-14 15:34 -33.82528 25.68541 4214 ft 215 kts 60°
2026-04-14 15:35 -33.81873 25.70149 4215 ft 212 kts 60°
2026-04-14 15:35 -33.81239 25.71707 4218 ft 203 kts 60°
2026-04-14 15:35 -33.80624 25.73217 4208 ft 199 kts 60°
2026-04-14 15:35 -33.80351 25.74842 4207 ft 204 kts 98°
2026-04-14 15:36 -33.80677 25.76515 4244 ft 208 kts 102°
2026-04-14 15:36 -33.81011 25.78214 4247 ft 210 kts 102°
2026-04-14 15:36 -33.81348 25.79942 4091 ft 214 kts 102°
2026-04-14 15:36 -33.81683 25.81662 3829 ft 208 kts 102°
2026-04-14 15:37 -33.82005 25.83314 3739 ft 197 kts 102°
2026-04-14 15:37 -33.82320 25.84924 3790 ft 199 kts 104°
2026-04-14 15:37 -33.83013 25.86334 3800 ft 198 kts 144°
2026-04-14 15:37 -33.84257 25.86886 3757 ft 188 kts 185°
2026-04-14 15:38 -33.85355 25.86301 3654 ft 169 kts 236°
2026-04-14 15:38 -33.86050 25.85178 3592 ft 170 kts 236°
2026-04-14 15:38 -33.86771 25.84068 3500 ft 166 kts 238°
2026-04-14 15:38 -33.87433 25.82922 3433 ft 167 kts 240°
2026-04-14 15:39 -33.88066 25.81754 3362 ft 166 kts 242°
2026-04-14 15:39 -33.88693 25.80577 3294 ft 168 kts 240°
2026-04-14 15:39 -33.89312 25.79444 3272 ft 153 kts 242°
2026-04-14 15:39 -33.89873 25.78383 3213 ft 149 kts 242°
2026-04-14 15:40 -33.90422 25.77326 3041 ft 148 kts 242°
2026-04-14 15:40 -33.90966 25.76274 2844 ft 148 kts 243°
2026-04-14 15:40 -33.91510 25.75222 2668 ft 149 kts 242°
2026-04-14 15:40 -33.92056 25.74165 2474 ft 149 kts 242°
2026-04-14 15:41 -33.92601 25.73110 2284 ft 148 kts 242°
2026-04-14 15:41 -33.93144 25.72059 2091 ft 147 kts 242°
2026-04-14 15:41 -33.93685 25.71011 1904 ft 149 kts 242°
2026-04-14 15:41 -33.94232 25.69953 1721 ft 148 kts 242°
2026-04-14 15:42 -33.94778 25.68899 1524 ft 149 kts 242°
2026-04-14 15:42 -33.95326 25.67839 1326 ft 149 kts 241°
2026-04-14 15:42 -33.95873 25.66780 1143 ft 148 kts 241°
2026-04-14 15:42 -33.96421 25.65721 961 ft 149 kts 240°
2026-04-14 15:43 -33.96965 25.64667 775 ft 147 kts 241°
2026-04-14 15:43 -33.97522 25.63652 592 ft 143 kts 239°
2026-04-14 15:43 -33.98007 25.62677 386 ft 129 kts 240°
2026-04-14 15:43 -33.98458 25.61802 228 ft 117 kts 241°
2026-04-14 15:44 -33.98818 25.61100 214 ft 70 kts 238°
2026-04-14 15:44 -33.99039 25.60671 212 ft 64 kts 238°
2026-04-14 15:44 -33.99251 25.60263 209 ft 39 kts 238°
2026-04-14 15:44 -33.99359 25.60046 213 ft 17 kts 253°
2026-04-14 15:45 -33.99302 25.59956 217 ft 14 kts 331°
2026-04-14 15:45 -33.99214 25.59938 218 ft 14 kts 35°
2026-04-14 15:45 -33.99152 25.60046 216 ft 19 kts 57°
2026-04-14 15:45 -33.99060 25.60216 216 ft 29 kts 57°
2026-04-14 15:46 -33.98950 25.60418 211 ft 28 kts 57°
2026-04-14 15:46 -33.98844 25.60611 211 ft 26 kts 57°
2026-04-14 15:46 -33.98749 25.60788 212 ft 24 kts 57°
2026-04-14 15:46 -33.98662 25.60953 215 ft 23 kts 59°
2026-04-14 15:47 -33.98592 25.61088 211 ft 16 kts 58°
2026-04-14 15:47 -33.98539 25.61192 214 ft 12 kts 58°
2026-04-14 15:47 -33.98510 25.61246 220 ft 6 kts 47°
2026-04-14 15:47 -33.98483 25.61239 215 ft 3 kts 332°
2026-04-14 15:48 -33.98468 25.61228 214 ft 2 kts 328°
2026-04-14 15:48 -33.98462 25.61224 213 ft 0 kts 328°